Regional Weather Roundup
Issued by NWS Jackson, KY

Home | Current Version | Previous Version | Text Only | Print | Product List | Glossary Off
Versions: 1 2 3 4 5 6 7 8 9 10 11 12 13 14 15 16 17 18 19 20 21 22 23 24 25 26 27 28

000
ASUS43 KJKL 261610
RWRJKL

EAST KENTUCKY HOURLY WEATHER ROUNDUP
NATIONAL WEATHER SERVICE JACKSON KY
1200 PM EDT WED APR 26 2017

NOTE: "FAIR" INDICATES FEW OR NO CLOUDS BELOW 12,000 FEET WITH
NO SIGNIFICANT WEATHER AND/OR OBSTRUCTIONS TO VISIBILITY.

* THESE REPORTS ARE NOT UNDER NWS QUALITY CONTROL AND MAY NOT
  REPORT WEATHER SUCH AS PRECIPITATION AND FOG.

KYZ079-080-083-085-087-088-110-112-115-119-120-261700
...EASTERN KENTUCKY...

CITY           SKY/WX    TMP DP  RH WIND       PRES   REMARKS
JACKSON          N/A     74  57  55 VRB5      29.81S
LONDON           N/A     74  54  49 SW9       29.81R
SOMERSET*        N/A     72  55  56 S9        29.80S
MONTICELLO*      N/A     75  59  57 VRB6G24   29.80S
WILLIAMSBURG*    N/A     73  57  56 SW8       29.80S
MIDDLESBORO*     N/A     73  57  58 S6        29.83R
PIKE CO APT*     N/A     73  59  61 SW7       29.82F
BIG SANDY APT*   N/A     73  58  58 SW6       29.81S
MOREHEAD APT*    N/A     75  55  50 SW12G21   29.80R
$$

KYZ035-036-041-042-044-050-067-078-099-261700
...CENTRAL KENTUCKY...

CITY           SKY/WX    TMP DP  RH WIND       PRES   REMARKS
DANVILLE*        N/A     73  57  56 SW9       29.77S
LEXINGTON        N/A     74  59  59 S14       29.74F
FRANKFORT        N/A     76  58  53 S10       29.70F
LOUISVILLE     PTSUNNY   77  61  57 S14G21    29.67S
LEBANON*         N/A     73  59  60 SE15      29.72F
GLASGOW*         N/A     75  58  55 S13G20    29.71F
BOWLING GREEN    N/A     77  62  59 S14       29.69F
$$

KYZ091>093-OHZ055-061-077-WVZ005-015-034-035-042-261700
...SOUTHERN OHIO/WEST VIRGINIA...

CITY           SKY/WX    TMP DP  RH WIND       PRES   REMARKS
COVINGTON      CLOUDY    74  61  63 S12       29.69S
COLUMBUS       CLOUDY    74  59  59 S14G20    29.73F
DAYTON         PTSUNNY   72  57  59 S14       29.68S
WILMINGTON       N/A     73  60  63 S12       29.71F
HUNTINGTON       N/A     75  59  57 CALM      29.77S
CHARLESTON       N/A     75  58  55 SW7       29.78F
PINEVILLE*       N/A     73  56  55 MISG      29.87F
BECKLEY        PTSUNNY   69  53  56 VRB6      29.85F
BLUEFIELD        N/A     66  52  60 W8        29.88S
$$

VAZ002-007-008-TNZ017-027-036-066-071-261700
...SOUTHWEST VIRGINIA/EAST TENNESSEE...

CITY           SKY/WX    TMP DP  RH WIND       PRES   REMARKS
WISE*            N/A     70  54  56 SW5       29.87F
JONESVILLE*      N/A     72  57  60 CALM      29.86S
ABINGDON*        N/A     71  59  66 W6        29.86F
BRISTOL          N/A     70  57  63 SW3       29.85F
MORRISTOWN*    SUNNY     72  59  64 CALM      29.83F
SEVIERVILLE*   SUNNY     72  57  60 W3        29.81F
KNOXVILLE        N/A     73  57  57 SW8       29.82S
OAK RIDGE        N/A     73  57  57 VRB3      29.83S
CROSSVILLE       N/A     71  56  58 VRB5      29.83S
NASHVILLE        N/A     77  61  57 S13G20    29.72F
$$

...KEY TO REMARKS...
VSB - VISIBILITY IN MILES
WCI - WIND CHILL INDEX
HX  - HEAT INDEX

$$




USA.gov is the U.S. government's official web portal to all federal, state and local government web resources and services.